Flag for Austria Weather past 2 weeks in Murau, Styria, Austria

Now
63 °F

Partly sunny.


Feels Like: 63 °F
Forecast: 54 / 73 °F
Wind: 3 mph from South

Location: Zeltweg

Current Time: Jul 31, 2014 at 7:37:44 AM

Latest Report: Jul 31, 2014 at 6:50 AM


Visibility: 4 mi

Pressure: 29.83 "Hg

Humidity: 94%

Dew point: 61 °F

Location of MurauLocation

Historic Weather in Murau — Graph

°F

Murau temperature yesterday

Maximum temperature yesterday: 73 °F (at 4:50 PM)
Minimum temperature yesterday: 57 °F (at 5:50 AM)
Average temperature yesterday: 64 °F

Past Weeks' High & Low Weather Summary

 TemperatureHumidityPressure
High86 °F (Jul 20, 12:50 PM)100% (Jul 16, 5:50 AM)30.24 "Hg (Jul 16, 5:50 AM)
Low46 °F (Jul 24, 5:50 AM)32% (Jul 18, 6:50 PM)29.77 "Hg (Jul 29, 4:20 PM)
Average67 °F73%29.98 "Hg
* Reported Jul 16 5:50 AM — Jul 31 5:50 AM, Murau, Weather by CustomWeather, © 2014

Note: Actual official high and low records may vary slightly from our data, if they occured in-between our weather recording intervals... More about our weather records

Advertising

Murau weather history for previous 24 hours

 ConditionsComfort  
Time TempWeatherWind HumidityBarometerVisibility
5:50 AM
Jul 31
61 °FLow clouds.2 mph100%29.83 "Hg4 mi
4:50 AM61 °FLow clouds.2 mph100%29.83 "Hg9 mi
10:50 PM
Jul 30
63 °FPassing clouds.2 mph94%29.83 "Hg9 mi
9:50 PM63 °FPassing clouds.2 mph100%29.80 "Hg9 mi
8:50 PM64 °FSprinkles. Overcast.3 mph94%29.80 "Hg9 mi
7:50 PM64 °FThunderstorms. More clouds than sun.3 mph94%29.80 "Hg12 mi
6:50 PM66 °FSprinkles. Partly sunny.3 mph88%29.77 "Hg12 mi
5:50 PM72 °FPartly sunny.5 mph57%29.80 "Hg19 mi
4:50 PM73 °FPartly sunny.5 mph57%29.77 "Hg19 mi
4:20 PM72 °FPassing clouds.5 mph57%29.80 "Hg19 mi
3:50 PM70 °FPassing clouds.3 mph64%29.80 "Hg19 mi
3:20 PM70 °FPassing clouds.2 mph69%29.80 "Hg19 mi
2:50 PM68 °FScattered clouds.2 mph69%29.80 "Hg12 mi
2:20 PM66 °FPartly sunny.2 mph73%29.83 "Hg9 mi
1:50 PM66 °FPartly sunny.2 mph73%29.83 "Hg9 mi
1:20 PM63 °FBroken clouds.6 mph94%29.83 "Hg9 mi
12:50 PM63 °FSprinkles. Broken clouds.5 mph83%29.83 "Hg6 mi
12:20 PM63 °FSprinkles. Partly sunny.8 mph88%29.83 "Hg5 mi
11:50 AM61 °FSleet. Partly sunny.7 mph94%29.83 "Hg5 mi
11:20 AM63 °FPartly sunny.2 mph88%29.80 "Hg5 mi
10:50 AM61 °FSprinkles. More clouds than sun.3 mph94%29.83 "Hg4 mi
10:20 AM61 °FRain showers. More clouds than sun.3 mph94%29.80 "Hg4 mi
9:50 AM61 °FRain showers. More clouds than sun.3 mph94%29.83 "Hg4 mi
9:20 AM61 °FMore clouds than sun.3 mph88%29.80 "Hg9 mi
8:50 AM61 °FMore clouds than sun.2 mph88%29.80 "Hg12 mi
8:20 AM61 °FBroken clouds.1 mph88%29.80 "Hg9 mi
7:50 AM61 °FPartly sunny.1 mph88%29.80 "Hg9 mi
7:20 AM59 °FLow clouds.2 mph94%29.80 "Hg9 mi
Weather by CustomWeather, © 2014

See weather overviewHow to use our weather pages